Regional Weather Roundup
Issued by NWS

Home | Current Version | Previous Version | Text Only | Print | Product List | Glossary Off
Versions: 1 2 3 4 5 6 7 8 9 10 11 12 13 14 15 16 17 18 19 20 21 22 23 24 25 26 27 28 29 30 31 32 33 34 35 36 37 38 39 40 41 42 43 44 45 46 47 48 49 50

000
ASUS45 KBOU 210507
RWRCO

WEATHER ROUNDUP FOR COLORADO
NATIONAL WEATHER SERVICE DENVER/BOULDER CO
1000 PM MST SAT DEC 20 2014

NOTE: "FAIR" INDICATES FEW OR NO CLOUDS BELOW 12000 FEET WITH NO
SIGNIFICANT WEATHER AND/OR OBSTRUCTIONS TO VISIBILITY.

COZ001>005-013-030-031-210600-
...NORTHWEST COLORADO...

CITY           SKY/WX    TMP DP  RH WIND       PRES   REMARKS
CRAIG          CLOUDY    28  26  92 CALM      30.05R
HAYDEN         CLOUDY    25  21  86 W5        30.04R WCI  19
MEEKER         CLOUDY    31  27  85 E5        30.06S WCI  26
MOUNT WERNER   NOT AVBL
STEAMBOAT SPGS CLOUDY    25  24  95 CALM      30.03R
WALDEN         MOCLDY    27  19  74 SW12      29.96S WCI  16
$$

COZ006>008-011-210600-
...WEST CENTRAL VALLEYS...

CITY           SKY/WX    TMP DP  RH WIND       PRES   REMARKS
GRAND JUNCTION CLOUDY    33  31  92 CALM      30.13R
MONTROSE       CLOUDY    33  26  75 CALM      30.13R
EAGLE          NOT AVBL
RIFLE          CLOUDY    30  28  92 CALM      30.11R FOG
DELTA          CLOUDY    36  28  73 N3        30.13R
NUCLA          CLOUDY    34  28  80 CALM      30.15R
$$

COZ017>023-064>068-210600-
...SOUTHWEST COLORADO...

CITY           SKY/WX    TMP DP  RH WIND       PRES   REMARKS
DURANGO        CLOUDY    29  26  89 SE3       30.09F
CORTEZ         CLOUDY    32  28  85 N3        30.12F
PAGOSA SPRINGS CLOUDY    30  24  79 CALM      30.10S
TELLURIDE      CLOUDY    28  23  83 CALM      30.10S
WOLF CREEK PAS SNOW      16  16 100 MISG      30.07F VSB 1/4
$$

COZ009-010-012-014-032>034-037-058>063-210600-
...CENTRAL COLORADO...

CITY           SKY/WX    TMP DP  RH WIND       PRES   REMARKS
ASPEN          LGT SNOW  25  22  88 N3        30.05S FOG
BUENA VISTA    MOCLDY    30  19  63 NW5       29.98F WCI  26
COPPER MTN     LGT SNOW  19  14  79 W31G39    29.98F VSB 1   WCI   0
BERTHOUD PASS  CLOUDY    12   7  79 MISG      29.95R
COTTONWOOD PAS CLOUDY    30  18  59 NW3       29.98F
GUNNISON       CLOUDY    21  16  79 CALM      30.09F
KREMMLING      FLURRIES  21  18  86 CALM      30.04S
LEADVILLE      LGT SNOW  22  17  81 N8        29.99S WCI  12
SALIDA         PTCLDY    35  21  57 W13G18    30.06S WCI  26
SUNLIGHT       CLOUDY    23  21  93 CALM      30.05R FOG
WILKERSON PASS MOCLDY    19  12  73 W6        30.00F WCI  11
$$

COZ069>075-210600-
...SAN LUIS VALLEY/SANGRE DE CRISTO MOUNTAINS...

CITY           SKY/WX    TMP DP  RH WIND       PRES   REMARKS
ALAMOSA        MOCLDY    21  16  81 SE3       30.03R
LA VETA PASS   MOCLDY    21  14  73 SW8G17    30.01R WCI  12
SAGUACHE       CLOUDY    32  21  64 CALM      30.04F
$$

COZ035-036-038>040-210600-
...NORTHERN COLORADO FRONT RANGE...

CITY           SKY/WX    TMP DP  RH WIND       PRES   REMARKS
DENVER INTL AP CLOUDY    38  22  52 SW3       29.91F
DMNS CITY PARK   N/A     35  23  60 SW2       29.91F
AURORA         MOCLDY    35  22  58 W7        29.93S WCI  29
FRONT RANGE AP CLOUDY    37  27  65 S3        29.92F
ERIE MUNI ARPT   N/A     30  23  73 CALM      29.92S
BOULDER MUN AP CLOUDY    37  21  52 CALM      29.91F
CENTENNIAL     CLOUDY    35  22  58 SW3       29.92F
BROOMFIELD     MOCLDY    41  19  42 W16G23    29.92F
FORT COLLINS   CLOUDY    32  19  59 N5        29.92F WCI  27
LONGMONT       CLOUDY    31  22  69 CALM      29.94F
$$

COZ041-046-047-076>085-087-088-210600-
...PIKES PEAK/PALMER DIVIDE AND SOUTHERN FOOTHILLS...

CITY           SKY/WX    TMP DP  RH WIND       PRES   REMARKS
COLO. SPRINGS  CLOUDY    34  20  56 N6        29.94F WCI  29
A. F. ACADEMY  CLOUDY    32  19  57 N6        29.94S WCI  27
ELLICOTT       NOT AVBL
FALCON         CLOUDY    36  20  53 N3        29.95S
FORT CARSON    CLOUDY    35  19  52 W3        29.93F
LIMON          CLOUDY    28  22  78 N6        29.94F WCI  22
MONUMENT HILL  CLOUDY    30  23  74 SW5       29.93F WCI  25
TRINIDAD       CLOUDY    36  19  50 NW8       29.93S
$$

COZ042>045-048>051-090-091-210600-
...NORTHEAST COLORADO...

CITY           SKY/WX    TMP DP  RH WIND       PRES   REMARKS
GREELEY ARPT   CLOUDY    28  14  54 W5        29.91F WCI  23
AKRON          CLOUDY    32  23  69 SE6       29.92F WCI  26
BURLINGTON     MOCLDY    31  26  82 SW9       29.93S WCI  23
WRAY           CLOUDY    27  26  95 SW3       29.94S
STERLING       CLOUDY    28  27  93 W6        29.91F WCI  22
HOLYOKE        MOCLDY    34  30  86 SW5       29.92F WCI  30
FORT MORGAN    CLOUDY    29  21  70 NW5       29.93F WCI  24
$$

COZ086-089-092>099-210600-
...SOUTHEAST COLORADO...

CITY           SKY/WX    TMP DP  RH WIND       PRES   REMARKS
PUEBLO         CLOUDY    34  23  64 CALM      29.93R
LA JUNTA       CLOUDY    31  25  78 NE3       29.91S
LAMAR          PTCLDY    27  24  89 E6        29.90F WCI  20
SPRINGFIELD      N/A     28  25  88 SW6       29.91F WCI  22
$$


USA.gov is the U.S. government's official web portal to all federal, state and local government web resources and services.